CW8429 Weather Reports


Display with metric or nautical units.
time (UTC)temp
F
wind
direction
speed
MPH
gust
MPH
rain 1hr
in
rain 24hr
in
rain mn
in
humidity
%
barometer
mb
20260906003625 78 169 3.0 8.0 0.00 0.00 0.00 19 1016.0
20260906002619 79 328 3.0 10.0 0.00 0.00 0.00 18 1016.0
20260906001629 79 196 5.0 13.0 0.00 0.00 0.00 17 1015.9
20260906000621 80 125 4.0 16.0 0.00 0.00 0.00 16 1015.9
20260905235622 80 130 5.0 15.0 0.00 0.00 0.00 16 1016.0
20260905234617 80 157 4.0 12.0 0.00 0.00 0.00 16 1015.9
20260905233626 80 297 6.0 12.0 0.00 0.00 0.00 16 1015.8
20260905232616 81 167 6.0 13.0 0.00 0.00 0.00 15 1015.7
20260905231646 81 89 7.0 14.0 0.00 0.00 0.00 16 1015.7
20260905230619 81 161 5.0 11.0 0.00 0.00 0.00 16 1015.7
20260905225621 81 268 6.0 10.0 0.00 0.00 0.00 16 1015.8
20260905224632 81 103 6.0 12.0 0.00 0.00 0.00 16 1015.7
20260905223622 80 187 6.0 14.0 0.00 0.00 0.00 16 1015.7
20260905222636 81 150 6.0 13.0 0.00 0.00 0.00 17 1015.6
20260905221626 81 150 6.0 12.0 0.00 0.00 0.00 17 1015.8
20260905220615 81 148 7.0 14.0 0.00 0.00 0.00 17 1016.0
20260905215617 80 138 4.0 15.0 0.00 0.00 0.00 16 1016.0
20260905214631 80 170 6.0 15.0 0.00 0.00 0.00 17 1016.1
20260905213622 80 30 7.0 14.0 0.00 0.00 0.00 17 1016.1
20260905212651 81 26 7.0 15.0 0.00 0.00 0.00 16 1016.3
20260905211619 80 18 8.0 13.0 0.00 0.00 0.00 16 1016.3
20260905210634 80 180 5.0 10.0 0.00 0.00 0.00 17 1016.3
20260905205614 80 160 7.0 13.0 0.00 0.00 0.00 17 1016.4
20260905204623 79 168 6.0 15.0 0.00 0.00 0.00 17 1016.4
20260905203613 80 196 7.0 16.0 0.00 0.00 0.00 16 1016.6
20260905202628 80 11 6.0 17.0 0.00 0.00 0.00 16 1016.6
20260905201616 80 308 5.0 15.0 0.00 0.00 0.00 18 1016.7
20260905200624 80 149 6.0 15.0 0.00 0.00 0.00 17 1016.8
20260905195625 79 11 7.0 13.0 0.00 0.00 0.00 17 1016.9
20260905194619 79 178 10.0 18.0 0.00 0.00 0.00 16 1017.1
20260905193629 79 138 6.0 17.0 0.00 0.00 0.00 16 1017.1
20260905192620 79 190 7.0 11.0 0.00 0.00 0.00 17 1017.2
20260905191613 78 172 9.0 18.0 0.00 0.00 0.00 16 1017.4
20260905190622 77 242 4.0 15.0 0.00 0.00 0.00 17 1017.5
20260905185624 78 136 9.0 21.0 0.00 0.00 0.00 17 1017.5
20260905184614 77 136 6.0 18.0 0.00 0.00 0.00 18 1017.3
20260905183628 78 173 7.0 15.0 0.00 0.00 0.00 16 1017.7
20260905182617 78 355 4.0 19.0 0.00 0.00 0.00 18 1017.9
20260905181624 78 191 5.0 12.0 0.00 0.00 0.00 18 1017.8
20260905180623 77 209 5.0 11.0 0.00 0.00 0.00 19 1018.0
20260905175646 77 174 5.0 12.0 0.00 0.00 0.00 19 1018.0
20260905174638 76 173 6.0 13.0 0.00 0.00 0.00 20 1018.2
20260905173627 76 186 6.0 16.0 0.00 0.00 0.00 20 1018.2
20260905172637 75 184 7.0 13.0 0.00 0.00 0.00 21 1018.2
20260905171626 75 123 5.0 11.0 0.00 0.00 0.00 20 1018.2
20260905170619 74 155 8.0 13.0 0.00 0.00 0.00 21 1018.2
20260905165621 75 153 5.0 15.0 0.00 0.00 0.00 21 1018.2
20260905164613 75 83 5.0 11.0 0.00 0.00 0.00 20 1018.2
20260905163624 74 169 7.0 12.0 0.00 0.00 0.00 24 1018.2
20260905162618 74 110 4.0 11.0 0.00 0.00 0.00 26 1018.1
20260905161628 73 166 6.0 11.0 0.00 0.00 0.00 25 1018.0
20260905160619 73 68 5.0 11.0 0.00 0.00 0.00 26 1018.0
20260905155622 73 102 5.0 10.0 0.00 0.00 0.00 26 1018.0
20260905154617 72 136 2.0 11.0 0.00 0.00 0.00 25 1018.0
20260905153627 71 123 3.0 11.0 0.00 0.00 0.00 26 1017.8
20260905152638 70 107 6.0 14.0 0.00 0.00 0.00 26 1018.0
20260905151626 70 92 7.0 13.0 0.00 0.00 0.00 26 1017.8
20260905150619 70 104 9.0 15.0 0.00 0.00 0.00 26 1017.9
20260905145623 68 147 4.0 12.0 0.00 0.00 0.00 27 1017.8
20260905144612 63 186 0.0 4.0 0.00 0.00 0.00 36 1017.9
20260905143623 60 186 0.0 0.0 0.00 0.00 0.00 39 1017.8
20260905142636 58 186 0.0 0.0 0.00 0.00 0.00 40 1017.9
20260905141626 58 186 0.0 0.0 0.00 0.00 0.00 42 1017.8
20260905140615 58 186 0.0 5.0 0.00 0.00 0.00 41 1017.7
20260905135639 58 192 2.0 4.0 0.00 0.00 0.00 41 1017.6
20260905134614 58 196 1.0 3.0 0.00 0.00 0.00 41 1017.5
20260905133626 58 197 1.0 5.0 0.00 0.00 0.00 41 1017.4
20260905132618 58 238 2.0 4.0 0.00 0.00 0.00 41 1017.2
20260905131649 59 305 1.0 5.0 0.00 0.00 0.00 41 1017.2
20260905130623 62 293 2.0 8.0 0.00 0.00 0.00 39 1017.0
20260905125627 67 144 5.0 10.0 0.00 0.00 0.00 29 1016.8
20260905124617 67 148 7.0 10.0 0.00 0.00 0.00 29 1016.7
20260905123628 67 119 6.0 12.0 0.00 0.00 0.00 29 1016.6
20260905122619 67 152 7.0 12.0 0.00 0.00 0.00 29 1016.5
20260905121615 67 166 8.0 11.0 0.00 0.00 0.00 30 1016.4
20260905120627 67 96 8.0 11.0 0.00 0.00 0.00 30 1016.3
20260905115630 68 148 7.0 13.0 0.00 0.00 0.00 30 1016.3
20260905114621 69 155 7.0 13.0 0.00 0.00 0.00 30 1016.3
20260905113637 69 105 7.0 13.0 0.00 0.00 0.00 30 1016.3
20260905112627 69 189 6.0 13.0 0.00 0.00 0.00 30 1016.3
20260905111618 69 155 7.0 10.0 0.00 0.00 0.00 29 1016.3
20260905110613 69 140 8.0 13.0 0.00 0.00 0.00 30 1016.2
20260905105618 69 115 8.0 14.0 0.00 0.00 0.00 30 1016.2
20260905104628 69 134 7.0 13.0 0.00 0.00 0.00 30 1016.1
20260905103619 69 128 9.0 14.0 0.00 0.00 0.00 30 1016.0
20260905102615 70 135 8.0 14.0 0.00 0.00 0.00 29 1016.1
20260905101626 70 137 8.0 12.0 0.00 0.00 0.00 29 1016.0
20260905100617 69 150 7.0 12.0 0.00 0.00 0.00 29 1015.8
20260905095619 69 148 8.0 10.0 0.00 0.00 0.00 29 1015.8
20260905094614 69 139 7.0 11.0 0.00 0.00 0.00 29 1015.7
20260905093646 69 153 8.0 14.0 0.00 0.00 0.00 29 1015.5
20260905092616 69 167 7.0 10.0 0.00 0.00 0.00 29 1015.6
20260905091627 69 160 4.0 8.0 0.00 0.00 0.00 29 1015.5
20260905090622 70 157 5.0 10.0 0.00 0.00 0.00 28 1015.3
20260905085646 69 148 5.0 8.0 0.00 0.00 0.00 28 1015.4
20260905084616 70 168 6.0 10.0 0.00 0.00 0.00 28 1015.3
20260905083627 70 157 6.0 11.0 0.00 0.00 0.00 28 1015.1
20260905082622 71 151 8.0 17.0 0.00 0.00 0.00 27 1015.1
20260905081613 71 123 8.0 13.0 0.00 0.00 0.00 27 1015.0
20260905080625 71 96 9.0 13.0 0.00 0.00 0.00 27 1015.0
20260905075628 71 136 8.0 14.0 0.00 0.00 0.00 27 1015.0
20260905074622 71 133 8.0 14.0 0.00 0.00 0.00 27 1014.9
20260905073613 71 144 7.0 13.0 0.00 0.00 0.00 27 1014.9
20260905072625 71 142 9.0 12.0 0.00 0.00 0.00 27 1014.8
20260905071620 71 103 6.0 12.0 0.00 0.00 0.00 27 1014.6
20260905070631 71 160 8.0 11.0 0.00 0.00 0.00 27 1014.7
20260905065614 72 147 6.0 11.0 0.00 0.00 0.00 27 1014.7
20260905064626 72 158 8.0 14.0 0.00 0.00 0.00 27 1014.5
20260905063620 72 113 7.0 12.0 0.00 0.00 0.00 27 1014.3
20260905062612 72 150 8.0 13.0 0.00 0.00 0.00 27 1014.2
20260905061643 72 125 10.0 14.0 0.00 0.00 0.00 28 1014.1
20260905060640 71 138 7.0 11.0 0.00 0.00 0.00 29 1014.0
20260905055622 71 142 7.0 12.0 0.00 0.00 0.00 29 1014.1
20260905054617 72 136 7.0 12.0 0.00 0.00 0.00 29 1014.1
20260905053628 71 148 6.0 11.0 0.00 0.00 0.00 29 1014.1
20260905052619 69 148 4.0 9.0 0.00 0.00 0.00 30 1014.0
20260905051630 71 161 2.0 8.0 0.00 0.00 0.00 29 1014.0
20260905050625 70 95 3.0 10.0 0.00 0.00 0.00 30 1014.0
20260905045646 66 157 0.0 4.0 0.00 0.00 0.00 36 1014.0
20260905044614 71 246 3.0 8.0 0.00 0.00 0.00 32 1014.0
20260905043644 72 162 6.0 10.0 0.00 0.00 0.00 27 1013.8
20260905042618 70 162 5.0 8.0 0.00 0.00 0.00 28 1013.6
20260905041628 70 248 2.0 7.0 0.00 0.00 0.00 28 1013.7
20260905040618 71 198 3.0 9.0 0.00 0.00 0.00 27 1013.6
20260905035620 71 154 6.0 9.0 0.00 0.00 0.00 26 1013.7
20260905034635 70 152 5.0 8.0 0.00 0.00 0.00 26 1013.7
20260905033645 69 153 6.0 9.0 0.00 0.00 0.00 28 1013.7
20260905032614 68 183 2.0 4.0 0.00 0.00 0.00 29 1013.8
20260905031623 69 207 1.0 4.0 0.00 0.00 0.00 28 1013.8
20260905030618 70 207 3.0 5.0 0.00 0.00 0.00 27 1013.7
20260905025620 72 210 2.0 7.0 0.00 0.00 0.00 26 1013.5
20260905024650 74 159 6.0 9.0 0.00 0.00 0.00 22 1013.2
20260905023640 74 137 7.0 9.0 0.00 0.00 0.00 22 1013.1
20260905022650 75 147 6.0 11.0 0.00 0.00 0.00 22 1013.0
20260905021644 75 147 6.0 9.0 0.00 0.00 0.00 21 1013.0
20260905020613 76 134 6.0 10.0 0.00 0.00 0.00 20 1013.0
20260905015615 76 175 6.0 11.0 0.00 0.00 0.00 20 1013.0
20260905014625 77 163 7.0 11.0 0.00 0.00 0.00 20 1013.0
20260905013619 77 111 5.0 11.0 0.00 0.00 0.00 20 1013.0
20260905012629 77 170 4.0 8.0 0.00 0.00 0.00 21 1013.1
20260905011641 77 78 4.0 6.0 0.00 0.00 0.00 21 1012.9
20260905010650 77 144 3.0 6.0 0.00 0.00 0.00 22 1013.0
20260905005614 77 177 3.0 6.0 0.00 0.00 0.00 22 1013.0
20260905004624 78 90 3.0 6.0 0.00 0.00 0.00 20 1013.0